When you browse on this site, cookies collect data to enhance your experience and personalize the content and advertising you see.
Visit our Privacy Policy to learn more. By continuing to use the site, you agree to this use of cookies and data.
  • In Austria
  • List of Countries
  • For 7 days
  • Water Temperature
  • Weather Map
  • News
  • Weather Widgets
  • user-avatar
    Login

    Hourly Weather Cardonal

    Today, 18 August, Sunday

    Time Temperature Precipitation Wind Pressure Humidity
    00:00 +14°C° 0 mm 0 mps 598 mmHg 97%
    01:00 +14°C° 0 mm 0 mps 598 mmHg 96%
    02:00 +14°C° 0 mm 0 mps 597 mmHg 96%
    03:00 +13°C° 0 mm 0 mps 597 mmHg 96%
    04:00 +13°C° 0 mm 0 mps 597 mmHg 96%
    05:00 +13°C° 0 mm 0 mps 597 mmHg 95%
    06:00 +15°C° 0 mm 0 mps 598 mmHg 88%
    07:00 +17°C° 0 mm 0 mps 599 mmHg 80%
    08:00 +19°C° 0 mm 0 mps 600 mmHg 72%
    09:00 +22°C° 0 mm 1 mps 601 mmHg 63%
    10:00 +24°C° 0 mm 1 mps 601 mmHg 54%
    11:00 +25°C° 0 mm 2 mps 602 mmHg 45%
    12:00 +26°C° 0 mm 3 mps 601 mmHg 45%
    13:00 +26°C° 0 mm 3 mps 601 mmHg 44%
    14:00 +27°C° 0 mm 4 mps 600 mmHg 44%
    15:00 +25°C° 0.1 mm 4 mps 600 mmHg 53%
    16:00 +23°C° 0.1 mm 4 mps 599 mmHg 62%
    17:00 +22°C° 0.1 mm 4 mps 598 mmHg 71%
    18:00 +20°C° 0.2 mm 3 mps 598 mmHg 79%
    19:00 +18°C° 0.2 mm 2 mps 599 mmHg 87%
    20:00 +18°C° 0.2 mm 1 mps 599 mmHg 95%
    21:00 +16°C° 0 mm 1 mps 599 mmHg 96%
    22:00 +16°C° 0 mm 1 mps 598 mmHg 97%
    23:00 +15°C° 0 mm 1 mps 598 mmHg 97%

    Tomorrow, 19 August, Monday

    Time Temperature Precipitation Wind Pressure Humidity
    00:00 +15°C° 0 mm 1 mps 598 mmHg 97%
    01:00 +14°C° 0 mm 0 mps 598 mmHg 98%
    02:00 +14°C° 0 mm 0 mps 598 mmHg 98%
    03:00 +14°C° 0 mm 0 mps 598 mmHg 96%
    04:00 +15°C° 0 mm 1 mps 598 mmHg 94%
    05:00 +16°C° 0 mm 1 mps 598 mmHg 93%
    06:00 +18°C° 0 mm 1 mps 599 mmHg 87%
    07:00 +19°C° 0 mm 1 mps 600 mmHg 82%
    08:00 +20°C° 0 mm 1 mps 600 mmHg 77%
    09:00 +20°C° 0.1 mm 2 mps 601 mmHg 69%
    10:00 +22°C° 0.1 mm 3 mps 601 mmHg 62%
    11:00 +23°C° 0.1 mm 4 mps 601 mmHg 54%
    12:00 +23°C° 0.1 mm 4 mps 601 mmHg 55%
    13:00 +23°C° 0.1 mm 5 mps 600 mmHg 56%
    14:00 +23°C° 0.1 mm 6 mps 600 mmHg 56%
    15:00 +22°C° 0.1 mm 5 mps 599 mmHg 62%
    16:00 +20°C° 0.1 mm 5 mps 599 mmHg 68%
    17:00 +19°C° 0.1 mm 4 mps 599 mmHg 74%
    18:00 +18°C° 0.1 mm 3 mps 599 mmHg 80%
    19:00 +17°C° 0.1 mm 3 mps 599 mmHg 87%
    20:00 +16°C° 0.1 mm 2 mps 599 mmHg 93%
    21:00 +15°C° 0 mm 2 mps 599 mmHg 94%
    22:00 +15°C° 0 mm 1 mps 599 mmHg 96%
    23:00 +14°C° 0 mm 1 mps 599 mmHg 97%

    Day after tomorrow, 20 August, Tuesday

    Time Temperature Precipitation Wind Pressure Humidity
    00:00 +14°C° 0 mm 1 mps 599 mmHg 95%
    01:00 +14°C° 0 mm 1 mps 599 mmHg 93%
    02:00 +14°C° 0 mm 1 mps 598 mmHg 92%
    03:00 +14°C° 0 mm 1 mps 598 mmHg 91%
    04:00 +14°C° 0 mm 1 mps 598 mmHg 91%
    05:00 +13°C° 0 mm 1 mps 599 mmHg 90%
    06:00 +14°C° 0 mm 1 mps 599 mmHg 84%
    07:00 +15°C° 0 mm 1 mps 600 mmHg 77%
    08:00 +16°C° 0 mm 1 mps 600 mmHg 71%
    09:00 +18°C° 0 mm 2 mps 601 mmHg 65%
    10:00 +20°C° 0 mm 3 mps 601 mmHg 59%
    11:00 +21°C° 0 mm 4 mps 602 mmHg 53%
    12:00 +21°C° 0 mm 4 mps 601 mmHg 55%
    13:00 +21°C° 0 mm 5 mps 601 mmHg 57%
    14:00 +21°C° 0 mm 5 mps 600 mmHg 59%
    15:00 +20°C° 0.1 mm 5 mps 600 mmHg 64%
    16:00 +19°C° 0.1 mm 5 mps 600 mmHg 69%
    17:00 +17°C° 0.1 mm 5 mps 599 mmHg 74%
    18:00 +17°C° 0.1 mm 3 mps 599 mmHg 81%
    19:00 +16°C° 0.1 mm 2 mps 599 mmHg 88%
    20:00 +15°C° 0.1 mm 1 mps 600 mmHg 94%
    21:00 +14°C° 0.1 mm 1 mps 600 mmHg 95%
    22:00 +14°C° 0.1 mm 1 mps 600 mmHg 96%
    23:00 +14°C° 0.1 mm 1 mps 600 mmHg 97%

    21 August, Wednesday

    Time Temperature Precipitation Wind Pressure Humidity
    00:00 +14°C° 0 mm 1 mps 599 mmHg 97%
    01:00 +14°C° 0 mm 1 mps 599 mmHg 97%
    02:00 +13°C° 0 mm 1 mps 599 mmHg 97%
    03:00 +14°C° 0 mm 1 mps 599 mmHg 96%
    04:00 +14°C° 0 mm 1 mps 599 mmHg 95%
    05:00 +13°C° 0 mm 0 mps 599 mmHg 94%
    06:00 +15°C° 0 mm 1 mps 599 mmHg 89%
    07:00 +16°C° 0 mm 1 mps 600 mmHg 84%
    08:00 +16°C° 0 mm 1 mps 600 mmHg 79%
    09:00 +19°C° 0 mm 1 mps 601 mmHg 72%
    10:00 +19°C° 0 mm 2 mps 601 mmHg 64%
    11:00 +21°C° 0 mm 2 mps 601 mmHg 56%
    12:00 +21°C° 0.3 mm 3 mps 601 mmHg 58%
    13:00 +21°C° 0.3 mm 4 mps 600 mmHg 60%
    14:00 +21°C° 0.3 mm 4 mps 600 mmHg 62%
    15:00 +20°C° 0.3 mm 4 mps 599 mmHg 67%
    16:00 +19°C° 0.3 mm 4 mps 599 mmHg 71%
    17:00 +18°C° 0.3 mm 4 mps 599 mmHg 76%
    18:00 +17°C° 0.5 mm 3 mps 599 mmHg 82%
    19:00 +16°C° 0.5 mm 2 mps 599 mmHg 88%
    20:00 +15°C° 0.5 mm 1 mps 599 mmHg 94%
    21:00 +15°C° 0.2 mm 1 mps 599 mmHg 94%
    22:00 +14°C° 0.2 mm 1 mps 599 mmHg 95%
    23:00 +13°C° 0.2 mm 0 mps 599 mmHg 95%

    22 August, Thursday

    Time Temperature Precipitation Wind Pressure Humidity
    00:00 +13°C° 0 mm 0 mps 599 mmHg 95%
    01:00 +13°C° 0 mm 0 mps 598 mmHg 94%
    02:00 +13°C° 0 mm 0 mps 598 mmHg 93%
    03:00 +13°C° 0 mm 0 mps 598 mmHg 93%
    04:00 +12°C° 0 mm 0 mps 598 mmHg 92%
    05:00 +12°C° 0 mm 0 mps 598 mmHg 92%
    06:00 +14°C° 0 mm 0 mps 599 mmHg 85%
    07:00 +16°C° 0 mm 0 mps 600 mmHg 77%
    08:00 +18°C° 0 mm 0 mps 601 mmHg 70%
    09:00 +19°C° 0.1 mm 0 mps 601 mmHg 64%
    10:00 +23°C° 0.1 mm 1 mps 602 mmHg 59%
    11:00 +24°C° 0.1 mm 1 mps 602 mmHg 53%
    12:00 +24°C° 0.8 mm 1 mps 601 mmHg 55%
    13:00 +24°C° 0.8 mm 2 mps 601 mmHg 58%
    14:00 +24°C° 0.8 mm 3 mps 600 mmHg 60%
    15:00 +23°C° 1.1 mm 2 mps 600 mmHg 67%
    16:00 +21°C° 1.1 mm 2 mps 599 mmHg 73%
    17:00 +20°C° 1.1 mm 2 mps 599 mmHg 80%
    18:00 +19°C° 3.6 mm 2 mps 599 mmHg 85%
    19:00 +19°C° 3.6 mm 1 mps 599 mmHg 90%
    20:00 +18°C° 3.6 mm 1 mps 599 mmHg 95%
    21:00 +16°C° 3 mm 1 mps 599 mmHg 94%
    22:00 +16°C° 3 mm 1 mps 599 mmHg 93%
    23:00 +16°C° 3 mm 1 mps 600 mmHg 93%

    23 August, Friday

    Time Temperature Precipitation Wind Pressure Humidity
    00:00 +16°C° 0.9 mm 1 mps 599 mmHg 92%
    01:00 +16°C° 0.9 mm 1 mps 599 mmHg 91%
    02:00 +16°C° 0.9 mm 1 mps 599 mmHg 91%
    03:00 +16°C° 0.1 mm 1 mps 599 mmHg 90%
    04:00 +16°C° 0.1 mm 1 mps 599 mmHg 90%
    05:00 +16°C° 0.1 mm 1 mps 599 mmHg 89%
    06:00 +16°C° 0 mm 1 mps 600 mmHg 85%
    07:00 +18°C° 0 mm 1 mps 600 mmHg 81%
    08:00 +19°C° 0 mm 1 mps 601 mmHg 77%
    09:00 +21°C° 0.2 mm 1 mps 601 mmHg 70%
    10:00 +22°C° 0.2 mm 1 mps 601 mmHg 63%
    11:00 +24°C° 0.2 mm 1 mps 602 mmHg 57%
    12:00 +24°C° 1 mm 1 mps 601 mmHg 56%
    13:00 +25°C° 1 mm 2 mps 601 mmHg 56%
    14:00 +25°C° 1 mm 2 mps 600 mmHg 56%
    15:00 +23°C° 2.3 mm 2 mps 600 mmHg 65%
    16:00 +20°C° 2.3 mm 2 mps 599 mmHg 75%
    17:00 +19°C° 2.3 mm 2 mps 598 mmHg 84%
    18:00 +18°C° 2.2 mm 2 mps 598 mmHg 86%
    19:00 +17°C° 2.2 mm 2 mps 599 mmHg 88%
    20:00 +16°C° 2.2 mm 2 mps 599 mmHg 91%
    21:00 +16°C° 0.5 mm 2 mps 599 mmHg 90%
    22:00 +16°C° 0.5 mm 2 mps 599 mmHg 90%
    23:00 +16°C° 0.5 mm 2 mps 600 mmHg 90%
    Show more